COSMOS 1275 DEB

Satellite information

Favourite Embed

Satellite Type and Status

DEBRISIN ORBIT

Key statistics

Satellite COSMOS 1275 DEB at a glance.

Uptime

16042

Days in orbit

Revolutions

≈ 14.1

Per day

Orbit

LEO

Low Earth Orbit

Inclination

82.9

Latest

Satellite identification and parameters

Extended collection of information and parameters for COSMOS 1275 DEB.

Object identification

Identified? True

Debris? True

Object name: COSMOS 1275 DEB

International designator: 1981-053QM

Object number (NORAD): 42125

Object ID (CCSDS): 42125

Country: COMMONWEALTH OF INDEPENDENT STATES (CIS)

Current information (Y/N): Y

RCS size: SMALL

Orbital parameters

Period: 102.294 minutes

Inclination: 82.9335 deg

SMA: 7245.361 km

Apoapsis: 900.628 km

Periapsis: 833.825 km

RAAN: 260.403 deg

Eccentricy: 0.0046101

Argument of periapsis: 279.2021 deg

Mean anomaly: 80.394 deg

Mean motion: 14.0770832 rev/day

Mean motion (dot): 0.00003399 rev/day2

B* drag term: 0.0019822 1/REarth

Two-line elements (TLE)

Creation date: May 3, 2025, 10:46 p.m.

Reference frame: TEME

Reference center: EARTH

Epoch: May 3, 2025, 2:58 p.m. UTC

TLE line 0: 0 COSMOS 1275 DEB

TLE line 1: 1 42125U 81053QM 25123.62387873 .00003399 00000-0 19822-2 0 9996

TLE line 2: 2 42125 82.9335 260.4030 0046101 279.2021 80.3940 14.07708320539717

Live tracking on map

Real-time ground track for satellite COSMOS 1275 DEB.

In-orbit conjunctions

A list of the most updated potential collisions computed for object COSMOS 1275 DEB.

Target Orbit TCA Probability of collision Miss distance Type
METEOR 1-10 LEO 2025-01-11 07:43:14 0.0001153419 598.0 (m) PAYLOAD

Associated space launch

Navigation satellite providing location information for the Tsiklon-B navigation system

COSMOS 1275 DEB was lifted into orbit during the mission ‘Kosmos-3M | Parus 27’, on board a Kosmos-3M space rocket.

The launch took place on June 4, 1981, 3:41 p.m. from 132/2.

For more information about the launch, click the button.

Launch to space Kosmos-3M | Parus 27
Kosmos-3M | Parus 27

Agency: N/A

Status: Launch Successful

Launch date: June 4, 1981, 3:41 p.m. UTC

Rocket: Kosmos-3M

Launch pad: 132/2

Location: Plesetsk Cosmodrome, Russian Federation

...

Latest news about this satellite

There are no fresh news available about this satellite. Check back as we update our databases every day.


Newsletter sign-up

Weekly statistics, charts and insights to help you stay on top of the space industry.